When you browse on this site, cookies collect data to enhance your experience and personalize the content and advertising you see.
Visit our Privacy Policy to learn more. By continuing to use the site, you agree to this use of cookies and data.
  • In United Kingdom
  • List of Countries
  • For 7 days
  • Water Temperature
  • Satellite Maps
  • Weather Map
  • Weather Widgets
  • user-avatar
    Login

    Hourly Weather Les Mureaux

    Today, 24 April, Wednesday

    Time Temperature Precipitation Wind Pressure Humidity
    00:00 +15°C° 0 mm 1 mps 738 mmHg 81%
    01:00 +14°C° 0.2 mm 2 mps 738 mmHg 83%
    02:00 +13°C° 0.2 mm 3 mps 738 mmHg 85%
    03:00 +13°C° 0.2 mm 3 mps 738 mmHg 88%
    04:00 +13°C° 0 mm 4 mps 738 mmHg 86%
    05:00 +13°C° 0 mm 5 mps 738 mmHg 84%
    06:00 +13°C° 0 mm 5 mps 738 mmHg 82%
    07:00 +13°C° 0 mm 5 mps 739 mmHg 80%
    08:00 +13°C° 0 mm 6 mps 739 mmHg 78%
    09:00 +14°C° 0 mm 6 mps 739 mmHg 76%
    10:00 +14°C° 0 mm 6 mps 740 mmHg 71%
    11:00 +15°C° 0 mm 5 mps 740 mmHg 67%
    12:00 +15°C° 0 mm 5 mps 740 mmHg 62%
    13:00 +15°C° 0.2 mm 5 mps 741 mmHg 64%
    14:00 +14°C° 0.2 mm 6 mps 741 mmHg 66%
    15:00 +14°C° 0.2 mm 6 mps 741 mmHg 69%
    16:00 +14°C° 0.3 mm 5 mps 741 mmHg 69%
    17:00 +13°C° 0.3 mm 5 mps 741 mmHg 70%
    18:00 +13°C° 0.3 mm 5 mps 741 mmHg 71%
    19:00 +12°C° 0 mm 4 mps 741 mmHg 71%
    20:00 +12°C° 0 mm 3 mps 742 mmHg 72%
    21:00 +11°C° 0 mm 3 mps 742 mmHg 73%
    22:00 +11°C° 0 mm 3 mps 742 mmHg 72%
    23:00 +12°C° 0 mm 4 mps 742 mmHg 71%

    Tomorrow, 25 April, Thursday

    Time Temperature Precipitation Wind Pressure Humidity
    00:00 +12°C° 0 mm 4 mps 742 mmHg 70%
    01:00 +12°C° 0.6 mm 5 mps 742 mmHg 74%
    02:00 +12°C° 0.6 mm 5 mps 741 mmHg 77%
    03:00 +10°C° 0.6 mm 6 mps 741 mmHg 81%
    04:00 +10°C° 1.5 mm 6 mps 741 mmHg 83%
    05:00 +10°C° 1.5 mm 5 mps 742 mmHg 85%
    06:00 +9°C° 1.5 mm 5 mps 742 mmHg 87%
    07:00 +10°C° 0 mm 5 mps 743 mmHg 84%
    08:00 +10°C° 0 mm 5 mps 743 mmHg 81%
    09:00 +10°C° 0 mm 5 mps 744 mmHg 78%
    10:00 +12°C° 0.3 mm 5 mps 745 mmHg 76%
    11:00 +11°C° 0.3 mm 6 mps 745 mmHg 74%
    12:00 +11°C° 0.3 mm 6 mps 745 mmHg 72%
    13:00 +13°C° 0.2 mm 6 mps 746 mmHg 70%
    14:00 +13°C° 0.2 mm 6 mps 746 mmHg 68%
    15:00 +13°C° 0.2 mm 6 mps 746 mmHg 65%
    16:00 +13°C° 0.1 mm 6 mps 747 mmHg 66%
    17:00 +11°C° 0.1 mm 6 mps 747 mmHg 67%
    18:00 +11°C° 0.1 mm 6 mps 747 mmHg 67%
    19:00 +10°C° 0 mm 5 mps 748 mmHg 70%
    20:00 +9°C° 0 mm 5 mps 748 mmHg 72%
    21:00 +8°C° 0 mm 5 mps 749 mmHg 74%
    22:00 +8°C° 0 mm 5 mps 749 mmHg 77%
    23:00 +7°C° 0 mm 4 mps 749 mmHg 79%

    Day after tomorrow, 26 April, Friday

    Time Temperature Precipitation Wind Pressure Humidity
    00:00 +7°C° 0 mm 4 mps 750 mmHg 82%
    01:00 +6°C° 0 mm 4 mps 750 mmHg 82%
    02:00 +6°C° 0 mm 4 mps 750 mmHg 83%
    03:00 +6°C° 0 mm 4 mps 750 mmHg 84%
    04:00 +6°C° 0 mm 5 mps 751 mmHg 81%
    05:00 +7°C° 0 mm 5 mps 751 mmHg 78%
    06:00 +8°C° 0 mm 5 mps 751 mmHg 75%
    07:00 +9°C° 0 mm 6 mps 751 mmHg 72%
    08:00 +10°C° 0 mm 6 mps 752 mmHg 69%
    09:00 +13°C° 0 mm 6 mps 752 mmHg 66%
    10:00 +14°C° 0.2 mm 6 mps 752 mmHg 64%
    11:00 +14°C° 0.2 mm 6 mps 752 mmHg 62%
    12:00 +15°C° 0.2 mm 6 mps 752 mmHg 60%
    13:00 +15°C° 0.5 mm 6 mps 752 mmHg 62%
    14:00 +15°C° 0.5 mm 6 mps 753 mmHg 64%
    15:00 +15°C° 0.5 mm 6 mps 753 mmHg 66%
    16:00 +14°C° 0.1 mm 6 mps 753 mmHg 69%
    17:00 +13°C° 0.1 mm 5 mps 754 mmHg 72%
    18:00 +12°C° 0.1 mm 4 mps 754 mmHg 75%
    19:00 +11°C° 0.1 mm 4 mps 754 mmHg 78%
    20:00 +10°C° 0.1 mm 3 mps 755 mmHg 80%
    21:00 +9°C° 0.1 mm 3 mps 755 mmHg 83%
    22:00 +8°C° 0 mm 4 mps 755 mmHg 82%
    23:00 +7°C° 0 mm 5 mps 754 mmHg 81%

    27 April, Saturday

    Time Temperature Precipitation Wind Pressure Humidity
    00:00 +7°C° 0 mm 6 mps 754 mmHg 80%
    01:00 +6°C° 0.3 mm 7 mps 753 mmHg 82%
    02:00 +8°C° 0.3 mm 7 mps 752 mmHg 83%
    03:00 +7°C° 0.3 mm 8 mps 752 mmHg 85%
    04:00 +7°C° 0.1 mm 8 mps 751 mmHg 83%
    05:00 +6°C° 0.1 mm 9 mps 751 mmHg 82%
    06:00 +6°C° 0.1 mm 9 mps 750 mmHg 80%
    07:00 +6°C° 0.6 mm 9 mps 751 mmHg 81%
    08:00 +7°C° 0.6 mm 9 mps 751 mmHg 81%
    09:00 +7°C° 0.6 mm 10 mps 751 mmHg 82%
    10:00 +7°C° 0.8 mm 10 mps 751 mmHg 81%
    11:00 +8°C° 0.8 mm 10 mps 752 mmHg 81%
    12:00 +8°C° 0.8 mm 9 mps 752 mmHg 81%
    13:00 +8°C° 0.3 mm 10 mps 753 mmHg 78%
    14:00 +9°C° 0.3 mm 10 mps 753 mmHg 76%
    15:00 +9°C° 0.3 mm 10 mps 754 mmHg 73%
    16:00 +9°C° 0.2 mm 10 mps 755 mmHg 76%
    17:00 +8°C° 0.2 mm 9 mps 755 mmHg 79%
    18:00 +9°C° 0.2 mm 8 mps 756 mmHg 81%
    19:00 +9°C° 0.6 mm 8 mps 757 mmHg 83%
    20:00 +9°C° 0.6 mm 8 mps 758 mmHg 84%
    21:00 +8°C° 0.6 mm 7 mps 759 mmHg 86%
    22:00 +8°C° 0.1 mm 6 mps 759 mmHg 86%
    23:00 +8°C° 0.1 mm 5 mps 760 mmHg 86%

    28 April, Sunday

    Time Temperature Precipitation Wind Pressure Humidity
    00:00 +7°C° 0.1 mm 5 mps 760 mmHg 86%
    01:00 +7°C° 0 mm 4 mps 760 mmHg 87%
    02:00 +6°C° 0 mm 4 mps 760 mmHg 88%
    03:00 +6°C° 0 mm 4 mps 761 mmHg 88%
    04:00 +7°C° 0 mm 3 mps 761 mmHg 87%
    05:00 +7°C° 0 mm 3 mps 761 mmHg 85%
    06:00 +7°C° 0 mm 3 mps 761 mmHg 84%
    07:00 +9°C° 0 mm 3 mps 761 mmHg 79%
    08:00 +10°C° 0 mm 3 mps 761 mmHg 74%
    09:00 +12°C° 0 mm 4 mps 761 mmHg 69%
    10:00 +12°C° 0 mm 4 mps 761 mmHg 66%
    11:00 +13°C° 0 mm 4 mps 761 mmHg 62%
    12:00 +14°C° 0 mm 4 mps 761 mmHg 58%
    13:00 +14°C° 0 mm 4 mps 761 mmHg 58%
    14:00 +14°C° 0 mm 4 mps 760 mmHg 57%
    15:00 +14°C° 0 mm 4 mps 760 mmHg 56%
    16:00 +13°C° 0 mm 3 mps 760 mmHg 60%
    17:00 +13°C° 0 mm 3 mps 760 mmHg 63%
    18:00 +12°C° 0 mm 3 mps 760 mmHg 67%
    19:00 +10°C° 0 mm 3 mps 760 mmHg 71%
    20:00 +9°C° 0 mm 2 mps 760 mmHg 75%
    21:00 +7°C° 0 mm 2 mps 760 mmHg 79%
    22:00 +7°C° 0 mm 2 mps 760 mmHg 80%
    23:00 +7°C° 0 mm 1 mps 760 mmHg 82%

    29 April, Monday

    Time Temperature Precipitation Wind Pressure Humidity
    00:00 +7°C° 0 mm 1 mps 760 mmHg 83%
    01:00 +7°C° 0 mm 1 mps 760 mmHg 84%
    02:00 +6°C° 0 mm 1 mps 759 mmHg 85%
    03:00 +6°C° 0 mm 1 mps 759 mmHg 86%
    04:00 +7°C° 0 mm 1 mps 759 mmHg 85%
    05:00 +7°C° 0 mm 1 mps 759 mmHg 83%
    06:00 +8°C° 0 mm 1 mps 759 mmHg 82%
    07:00 +10°C° 0 mm 1 mps 759 mmHg 75%
    08:00 +12°C° 0 mm 1 mps 758 mmHg 69%
    09:00 +13°C° 0 mm 1 mps 758 mmHg 62%
    10:00 +15°C° 0 mm 1 mps 758 mmHg 56%
    11:00 +16°C° 0 mm 1 mps 757 mmHg 50%
    12:00 +18°C° 0 mm 1 mps 757 mmHg 44%
    13:00 +18°C° 0 mm 1 mps 756 mmHg 43%
    14:00 +18°C° 0 mm 2 mps 756 mmHg 42%
    15:00 +18°C° 0 mm 2 mps 755 mmHg 41%
    16:00 +17°C° 0 mm 2 mps 755 mmHg 46%
    17:00 +16°C° 0 mm 2 mps 755 mmHg 52%
    18:00 +16°C° 0 mm 3 mps 754 mmHg 57%
    19:00 +13°C° 0 mm 3 mps 754 mmHg 61%
    20:00 +12°C° 0 mm 3 mps 755 mmHg 65%
    21:00 +11°C° 0 mm 3 mps 755 mmHg 69%
    22:00 +11°C° 0 mm 3 mps 754 mmHg 71%
    23:00 +10°C° 0 mm 2 mps 754 mmHg 73%
    Show more